Total_Precipitation_Accumulation
0.00 0.00 0.01 0.01 0.01 0.01 0.03 0.05 0.08 0.11 0.09 0.10 0.22 0.48 0.66 0.76 0.98 1.00 1.00 1.11 1.23 1.36 1.66 2.01 2.26 2.74 3.29 3.60 4.00 4.17 4.12 3.97 3.66 3.26 2.92 2.65 2.44 2.30 2.09 1.94 1.83 1.78 1.74 1.82
0.01 0.03 0.02 0.01 0.01 0.02 0.04 0.07 0.09 0.13 0.11 0.14 0.31 0.53 0.77 0.77 0.85 0.90 0.81 0.86 1.00 1.31 1.58 2.07 2.24 2.39 2.81 3.25 3.73 3.99 4.13 3.97 3.53 3.05 2.75 2.60 2.54 2.22 1.93 1.89 1.86 1.80 1.88 1.86
0.01 0.02 0.02 0.01 0.02 0.04 0.06 0.07 0.09 0.09 0.11 0.20 0.32 0.70 0.95 0.83 0.78 0.81 0.79 0.85 1.00 1.40 1.85 2.11 2.21 2.29 2.46 2.83 3.10 3.22 3.32 3.23 2.93 2.75 2.66 2.59 2.56 2.21 2.07 2.12 2.11 2.03 2.04 1.98
0.01 0.01 0.02 0.03 0.04 0.04 0.08 0.06 0.05 0.06 0.13 0.31 0.34 0.77 1.18 1.02 0.84 0.87 0.93 0.89 1.19 1.51 1.53 1.60 1.84 2.07 2.24 2.44 2.70 2.88 2.85 2.71 2.47 2.39 2.38 2.33 2.19 2.11 2.24 2.46 2.35 2.11 1.92 1.77
0.03 0.03 0.03 0.04 0.04 0.04 0.06 0.05 0.06 0.08 0.13 0.28 0.35 0.56 1.02 1.06 1.09 0.97 0.93 0.99 1.23 1.27 1.20 1.23 1.41 1.66 1.75 2.00 2.21 2.40 2.49 2.48 2.33 2.23 2.18 2.21 2.12 2.09 2.07 2.02 1.94 1.79 1.60 1.38
0.04 0.04 0.04 0.03 0.03 0.04 0.05 0.06 0.12 0.18 0.29 0.62 0.46 0.48 0.87 1.03 0.93 0.81 0.85 0.88 1.00 1.00 1.01 1.08 1.19 1.36 1.46 1.55 1.61 1.66 1.81 1.97 1.96 1.90 1.90 1.89 1.79 1.70 1.60 1.42 1.34 1.24 1.12 0.95
0.09 0.10 0.08 0.05 0.05 0.06 0.05 0.09 0.38 0.73 0.96 1.00 0.53 0.56 0.97 0.81 0.61 0.62 0.75 0.75 0.70 0.69 0.74 0.89 0.95 1.02 1.07 1.11 1.13 1.21 1.39 1.60 1.54 1.43 1.46 1.48 1.43 1.36 1.25 1.15 1.05 0.98 0.86 0.73
0.16 0.21 0.12 0.07 0.07 0.07 0.08 0.09 0.33 0.61 0.72 0.78 0.63 0.93 1.30 0.84 0.62 0.66 0.67 0.63 0.56 0.54 0.54 0.65 0.79 0.91 0.91 0.86 0.89 0.94 1.11 1.23 1.17 1.07 1.12 1.17 1.13 1.10 1.01 0.97 0.82 0.75 0.72 0.72
0.11 0.11 0.07 0.07 0.10 0.10 0.09 0.08 0.14 0.27 0.33 0.50 0.73 0.99 1.02 0.60 0.52 0.59 0.56 0.54 0.56 0.54 0.51 0.51 0.56 0.66 0.69 0.65 0.65 0.70 0.89 1.01 1.03 0.99 1.00 1.00 0.95 0.91 0.81 0.73 0.65 0.58 0.62 0.64
0.04 0.06 0.08 0.07 0.08 0.10 0.10 0.10 0.15 0.21 0.30 0.46 0.66 0.93 0.99 0.66 0.54 0.39 0.31 0.27 0.30 0.29 0.29 0.28 0.30 0.34 0.38 0.43 0.52 0.61 0.68 0.75 0.77 0.77 0.80 0.81 0.82 0.75 0.66 0.57 0.50 0.49 0.50 0.55
0.04 0.04 0.07 0.08 0.10 0.12 0.12 0.11 0.12 0.15 0.17 0.32 0.62 0.78 0.54 0.46 0.40 0.35 0.28 0.22 0.18 0.15 0.17 0.21 0.25 0.31 0.36 0.40 0.47 0.58 0.63 0.69 0.72 0.69 0.68 0.69 0.67 0.66 0.59 0.50 0.45 0.44 0.48 0.52
0.04 0.04 0.06 0.13 0.17 0.15 0.14 0.11 0.11 0.15 0.14 0.18 0.31 0.46 0.31 0.31 0.30 0.25 0.25 0.24 0.22 0.20 0.20 0.22 0.24 0.33 0.40 0.45 0.44 0.46 0.52 0.59 0.71 0.82 0.90 0.92 0.84 0.75 0.65 0.51 0.44 0.44 0.45 0.48
0.05 0.05 0.10 0.27 0.39 0.25 0.16 0.12 0.12 0.13 0.10 0.15 0.28 0.43 0.24 0.19 0.24 0.26 0.38 0.46 0.36 0.24 0.17 0.18 0.21 0.27 0.33 0.41 0.46 0.45 0.49 0.53 0.64 0.83 1.09 1.20 1.11 0.96 0.77 0.57 0.42 0.38 0.37 0.40
0.07 0.05 0.09 0.28 0.41 0.35 0.25 0.16 0.12 0.10 0.12 0.15 0.18 0.36 0.31 0.23 0.23 0.21 0.18 0.20 0.21 0.17 0.13 0.13 0.16 0.25 0.30 0.37 0.46 0.49 0.53 0.53 0.60 0.74 0.91 0.98 0.89 0.79 0.68 0.50 0.36 0.30 0.31 0.35
0.11 0.07 0.05 0.10 0.19 0.21 0.22 0.21 0.17 0.14 0.11 0.19 0.21 0.26 0.26 0.21 0.24 0.24 0.22 0.20 0.19 0.17 0.13 0.13 0.17 0.24 0.29 0.32 0.40 0.41 0.37 0.33 0.38 0.50 0.56 0.62 0.56 0.47 0.43 0.40 0.36 0.33 0.33 0.35
0.16 0.16 0.12 0.12 0.15 0.19 0.24 0.23 0.17 0.11 0.08 0.11 0.16 0.20 0.19 0.19 0.24 0.28 0.25 0.20 0.19 0.17 0.12 0.12 0.18 0.23 0.24 0.24 0.25 0.22 0.23 0.25 0.29 0.36 0.41 0.49 0.51 0.44 0.37 0.34 0.33 0.32 0.33 0.39
0.20 0.24 0.21 0.17 0.17 0.19 0.28 0.29 0.21 0.12 0.11 0.14 0.20 0.23 0.18 0.18 0.21 0.26 0.27 0.23 0.20 0.20 0.12 0.10 0.14 0.17 0.16 0.15 0.16 0.18 0.21 0.28 0.35 0.42 0.48 0.54 0.55 0.51 0.44 0.38 0.39 0.39 0.41 0.44
0.34 0.34 0.28 0.23 0.28 0.38 0.28 0.22 0.22 0.22 0.19 0.19 0.25 0.23 0.23 0.26 0.31 0.33 0.36 0.30 0.22 0.19 0.14 0.10 0.11 0.12 0.14 0.15 0.17 0.21 0.28 0.37 0.41 0.49 0.57 0.66 0.69 0.61 0.56 0.56 0.58 0.59 0.59 0.57
0.28 0.42 0.38 0.35 0.41 0.37 0.32 0.22 0.24 0.29 0.34 0.28 0.32 0.33 0.33 0.34 0.34 0.33 0.30 0.24 0.20 0.15 0.16 0.15 0.12 0.15 0.17 0.17 0.20 0.30 0.40 0.47 0.55 0.60 0.69 0.76 0.81 0.80 0.78 0.78 0.77 0.79 0.76 0.67
0.25 0.39 0.50 0.45 0.53 0.51 0.42 0.30 0.28 0.38 0.65 0.47 0.43 0.43 0.38 0.40 0.44 0.40 0.32 0.30 0.27 0.21 0.18 0.18 0.16 0.19 0.22 0.25 0.32 0.43 0.50 0.58 0.67 0.74 0.88 1.00 1.08 1.09 1.08 1.09 1.06 0.99 0.94 0.83
0.48 0.54 0.57 0.57 0.58 0.57 0.46 0.39 0.38 0.66 0.89 0.59 0.43 0.44 0.46 0.55 0.54 0.49 0.38 0.36 0.32 0.24 0.24 0.20 0.20 0.25 0.32 0.39 0.48 0.60 0.70 0.80 0.78 0.83 0.96 1.14 1.22 1.27 1.30 1.36 1.31 1.24 1.16 1.11
0.61 0.69 0.66 0.67 0.77 0.82 0.60 0.55 0.76 0.89 0.73 0.71 0.62 0.56 0.55 0.54 0.45 0.40 0.36 0.35 0.33 0.29 0.31 0.29 0.29 0.36 0.42 0.52 0.60 0.70 0.78 0.79 0.82 0.88 0.98 1.08 1.15 1.15 1.20 1.37 1.41 1.41 1.38 1.30
0.55 0.67 0.72 0.79 0.86 0.76 0.62 0.68 0.77 0.80 0.79 0.75 0.70 0.62 0.54 0.51 0.45 0.35 0.30 0.29 0.27 0.27 0.29 0.29 0.33 0.45 0.55 0.66 0.76 0.86 0.83 0.87 0.89 0.94 1.06 1.14 1.17 1.21 1.29 1.34 1.36 1.39 1.43 1.42
0.57 0.58 0.70 0.87 0.89 0.83 0.71 0.62 0.57 0.61 0.64 0.63 0.59 0.57 0.54 0.50 0.46 0.41 0.33 0.27 0.26 0.26 0.25 0.27 0.32 0.41 0.50 0.59 0.68 0.82 0.92 0.99 1.03 1.07 1.13 1.21 1.28 1.27 1.28 1.38 1.45 1.48 1.53 1.57
0.66 0.63 0.75 0.93 0.86 0.71 0.78 0.79 0.71 0.72 0.76 0.73 0.63 0.60 0.60 0.52 0.49 0.42 0.37 0.33 0.29 0.27 0.26 0.28 0.34 0.41 0.47 0.54 0.62 0.71 0.80 0.92 1.01 1.07 1.10 1.13 1.19 1.25 1.32 1.38 1.43 1.39 1.44 1.41
0.60 0.69 0.85 0.99 0.90 0.84 0.85 0.80 0.72 0.75 0.71 0.71 0.74 0.76 0.60 0.50 0.52 0.49 0.42 0.35 0.34 0.32 0.33 0.36 0.38 0.40 0.44 0.52 0.63 0.72 0.82 0.96 1.09 1.18 1.18 1.12 1.10 1.17 1.23 1.29 1.29 1.21 1.12 1.08